Saint Bonnet de Bellac- Haute Vienne - France
Donnes mto: vendredi, 03/08/2012
Date Horaire Temp. E. Hum. E. P.atmo. Pluie Vent Direction Direction Ensoleilleme Solaire P. de rose Temp au vent Rafales
03/08/2012 00:00 15,3 C 75 % 1019,1 hPa 0,0 mm 0,0 km/h (0 Bft) S-SO 202 0 min 0 W/m 10,9 C 15,3 C 0,0 km/h (0 Bft)
03/08/2012 00:10 15,1 C 76 % 1019,0 hPa 0,0 mm 0,0 km/h (0 Bft) S-SO 202 0 min 0 W/m 10,9 C 15,1 C 0,0 km/h (0 Bft)
03/08/2012 00:20 14,9 C 76 % 1019,0 hPa 0,0 mm 0,4 km/h (0 Bft) O-SO 247 0 min 0 W/m 10,7 C 14,9 C 0,4 km/h (0 Bft)
03/08/2012 00:30 14,8 C 77 % 1019,0 hPa 0,0 mm 0,0 km/h (0 Bft) O-SO 247 0 min 0 W/m 10,8 C 14,8 C 0,0 km/h (0 Bft)
03/08/2012 00:40 14,8 C 78 % 1019,0 hPa 0,0 mm 0,0 km/h (0 Bft) S-SO 202 0 min 0 W/m 11,0 C 14,8 C 0,0 km/h (0 Bft)
03/08/2012 00:50 14,6 C 79 % 1019,0 hPa 0,0 mm 0,4 km/h (0 Bft) S-SO 202 0 min 0 W/m 11,0 C 14,6 C 3,2 km/h (1 Bft)
03/08/2012 01:00 14,4 C 79 % 1019,0 hPa 0,0 mm 0,0 km/h (0 Bft) S 180 0 min 0 W/m 10,8 C 14,4 C 0,0 km/h (0 Bft)
03/08/2012 01:10 14,3 C 79 % 1019,0 hPa 0,0 mm 0,0 km/h (0 Bft) S-SO 202 0 min 0 W/m 10,7 C 14,3 C 0,0 km/h (0 Bft)
03/08/2012 01:20 14,0 C 80 % 1019,0 hPa 0,0 mm 0,0 km/h (0 Bft) S 180 0 min 0 W/m 10,6 C 14,0 C 0,0 km/h (0 Bft)
03/08/2012 01:30 13,7 C 81 % 1019,1 hPa 0,0 mm 0,0 km/h (0 Bft) S-SO 202 0 min 0 W/m 10,5 C 13,7 C 0,0 km/h (0 Bft)
03/08/2012 01:40 13,5 C 82 % 1019,1 hPa 0,0 mm 0,0 km/h (0 Bft) S-SO 202 0 min 0 W/m 10,5 C 13,5 C 0,0 km/h (0 Bft)
03/08/2012 01:50 13,4 C 83 % 1019,1 hPa 0,0 mm 0,0 km/h (0 Bft) S-SO 202 0 min 0 W/m 10,6 C 13,4 C 0,0 km/h (0 Bft)
03/08/2012 02:00 13,2 C 84 % 1019,1 hPa 0,0 mm 0,0 km/h (0 Bft) S-SO 202 0 min 0 W/m 10,6 C 13,2 C 0,0 km/h (0 Bft)
03/08/2012 02:10 12,9 C 84 % 1019,1 hPa 0,0 mm 0,0 km/h (0 Bft) S-SO 202 0 min 0 W/m 10,3 C 12,9 C 0,0 km/h (0 Bft)
03/08/2012 02:20 12,8 C 84 % 1019,1 hPa 0,0 mm 0,0 km/h (0 Bft) S-SO 202 0 min 0 W/m 10,2 C 12,8 C 0,0 km/h (0 Bft)
03/08/2012 02:30 12,6 C 85 % 1019,1 hPa 0,0 mm 0,0 km/h (0 Bft) S-SO 202 0 min 0 W/m 10,1 C 12,6 C 0,0 km/h (0 Bft)
03/08/2012 02:40 12,5 C 86 % 1019,0 hPa 0,0 mm 0,0 km/h (0 Bft) S-SO 202 0 min 0 W/m 10,2 C 12,5 C 0,0 km/h (0 Bft)
03/08/2012 02:50 12,4 C 86 % 1019,0 hPa 0,0 mm 0,0 km/h (0 Bft) S-SO 202 0 min 0 W/m 10,1 C 12,4 C 0,0 km/h (0 Bft)
03/08/2012 03:02 12,3 C 86 % 1019,0 hPa 0,0 mm 0,0 km/h (0 Bft) SO 225 0 min 0 W/m 10,0 C 12,3 C 0,0 km/h (0 Bft)
03/08/2012 03:10 12,2 C 86 % 1019,0 hPa 0,0 mm 0,0 km/h (0 Bft) SO 225 0 min 0 W/m 9,9 C 12,2 C 0,0 km/h (0 Bft)
03/08/2012 03:20 12,0 C 87 % 1018,9 hPa 0,0 mm 0,0 km/h (0 Bft) S-SO 202 0 min 0 W/m 9,9 C 12,0 C 0,0 km/h (0 Bft)
03/08/2012 03:30 11,9 C 87 % 1018,9 hPa 0,0 mm 0,0 km/h (0 Bft) S-SO 202 0 min 0 W/m 9,8 C 11,9 C 0,0 km/h (0 Bft)
03/08/2012 03:40 11,8 C 87 % 1018,9 hPa 0,0 mm 0,0 km/h (0 Bft) S-SO 202 0 min 0 W/m 9,7 C 11,8 C 0,0 km/h (0 Bft)
03/08/2012 03:50 11,6 C 88 % 1018,9 hPa 0,0 mm 0,0 km/h (0 Bft) S 180 0 min 0 W/m 9,7 C 11,6 C 0,0 km/h (0 Bft)
03/08/2012 04:00 11,7 C 89 % 1018,8 hPa 0,0 mm 0,0 km/h (0 Bft) S-SO 202 0 min 0 W/m 9,9 C 11,7 C 0,0 km/h (0 Bft)
03/08/2012 04:10 11,8 C 89 % 1018,8 hPa 0,0 mm 0,0 km/h (0 Bft) S-SO 202 0 min 0 W/m 10,0 C 11,8 C 0,0 km/h (0 Bft)
03/08/2012 04:20 11,8 C 90 % 1018,8 hPa 0,0 mm 0,0 km/h (0 Bft) S-SO 202 0 min 0 W/m 10,2 C 11,8 C 0,0 km/h (0 Bft)
03/08/2012 04:30 11,8 C 90 % 1018,7 hPa 0,0 mm 0,0 km/h (0 Bft) S 180 0 min 0 W/m 10,2 C 11,8 C 0,0 km/h (0 Bft)
03/08/2012 04:40 11,8 C 90 % 1018,6 hPa 0,0 mm 0,0 km/h (0 Bft) S 180 0 min 0 W/m 10,2 C 11,8 C 0,0 km/h (0 Bft)
03/08/2012 04:50 11,8 C 90 % 1018,7 hPa 0,0 mm 0,0 km/h (0 Bft) SE 135 0 min 0 W/m 10,2 C 11,8 C 0,0 km/h (0 Bft)
03/08/2012 05:00 11,8 C 90 % 1018,7 hPa 0,0 mm 0,0 km/h (0 Bft) S-SE 157 0 min 0 W/m 10,2 C 11,8 C 0,0 km/h (0 Bft)
03/08/2012 05:10 11,8 C 90 % 1018,7 hPa 0,0 mm 0,0 km/h (0 Bft) S-SE 157 0 min 0 W/m 10,2 C 11,8 C 0,0 km/h (0 Bft)
03/08/2012 05:20 11,7 C 90 % 1018,6 hPa 0,0 mm 0,0 km/h (0 Bft) S-SE 157 0 min 0 W/m 10,1 C 11,7 C 0,0 km/h (0 Bft)
03/08/2012 05:30 11,5 C 90 % 1018,6 hPa 0,0 mm 0,0 km/h (0 Bft) S-SE 157 0 min 0 W/m 9,9 C 11,5 C 0,0 km/h (0 Bft)
03/08/2012 05:40 11,4 C 90 % 1018,6 hPa 0,0 mm 0,0 km/h (0 Bft) S-SE 157 0 min 0 W/m 9,8 C 11,4 C 0,0 km/h (0 Bft)
03/08/2012 05:50 11,3 C 90 % 1018,7 hPa 0,0 mm 0,0 km/h (0 Bft) SE 135 0 min 0 W/m 9,7 C 11,3 C 0,0 km/h (0 Bft)
03/08/2012 06:00 11,4 C 90 % 1018,8 hPa 0,0 mm 0,0 km/h (0 Bft) S-SE 157 0 min 0 W/m 9,8 C 11,4 C 0,0 km/h (0 Bft)
03/08/2012 06:10 11,3 C 90 % 1018,9 hPa 0,0 mm 0,0 km/h (0 Bft) SE 135 0 min 0 W/m 9,7 C 11,3 C 0,0 km/h (0 Bft)
03/08/2012 06:20 11,1 C 89 % 1018,9 hPa 0,0 mm 0,0 km/h (0 Bft) E-SE 112 0 min 0 W/m 9,4 C 11,1 C 0,0 km/h (0 Bft)
03/08/2012 06:30 10,9 C 89 % 1019,0 hPa 0,0 mm 0,0 km/h (0 Bft) E-SE 112 0 min 0 W/m 9,2 C 10,9 C 0,0 km/h (0 Bft)
03/08/2012 06:40 10,8 C 89 % 1019,1 hPa 0,0 mm 0,4 km/h (0 Bft) E-NE 67 0 min 0 W/m 9,1 C 10,8 C 0,4 km/h (0 Bft)
03/08/2012 06:50 10,8 C 90 % 1019,2 hPa 0,0 mm 0,0 km/h (0 Bft) E-NE 67 0 min 0 W/m 9,2 C 10,8 C 2,9 km/h (1 Bft)
03/08/2012 07:00 10,8 C 90 % 1019,1 hPa 0,0 mm 0,4 km/h (0 Bft) E 90 0 min 0 W/m 9,2 C 10,8 C 2,9 km/h (1 Bft)
03/08/2012 07:10 10,9 C 90 % 1019,1 hPa 0,0 mm 2,2 km/h (1 Bft) E-SE 112 0 min 0 W/m 9,3 C 10,9 C 4,3 km/h (1 Bft)
03/08/2012 07:20 11,1 C 90 % 1018,9 hPa 0,0 mm 1,1 km/h (1 Bft) E-NE 67 0 min 0 W/m 9,5 C 11,1 C 4,0 km/h (1 Bft)
03/08/2012 07:30 11,1 C 90 % 1018,9 hPa 0,0 mm 0,0 km/h (0 Bft) E-SE 112 0 min 0 W/m 9,5 C 11,1 C 0,0 km/h (0 Bft)
03/08/2012 07:40 11,3 C 90 % 1018,9 hPa 0,0 mm 0,0 km/h (0 Bft) E 90 0 min 0 W/m 9,7 C 11,3 C 0,0 km/h (0 Bft)
03/08/2012 07:50 11,4 C 91 % 1018,9 hPa 0,0 mm 0,7 km/h (0 Bft) E-SE 112 0 min 0 W/m 10,0 C 11,4 C 3,6 km/h (1 Bft)
03/08/2012 08:00 11,6 C 91 % 1018,9 hPa 0,0 mm 0,0 km/h (0 Bft) E 90 0 min 0 W/m 10,2 C 11,6 C 0,0 km/h (0 Bft)
03/08/2012 08:10 11,9 C 92 % 1018,9 hPa 0,0 mm 0,0 km/h (0 Bft) E 90 0 min 0 W/m 10,6 C 11,9 C 0,0 km/h (0 Bft)
03/08/2012 08:20 12,4 C 91 % 1018,9 hPa 0,0 mm 0,0 km/h (0 Bft) E 90 0 min 0 W/m 11,0 C 12,4 C 0,0 km/h (0 Bft)
03/08/2012 08:30 12,8 C 91 % 1018,9 hPa 0,0 mm 0,0 km/h (0 Bft) E 90 0 min 0 W/m 11,4 C 12,8 C 0,0 km/h (0 Bft)
03/08/2012 08:40 13,1 C 92 % 1019,0 hPa 0,0 mm 0,0 km/h (0 Bft) E 90 0 min 0 W/m 11,8 C 13,1 C 0,0 km/h (0 Bft)
03/08/2012 08:50 13,6 C 92 % 1019,0 hPa 0,0 mm 0,0 km/h (0 Bft) E 90 0 min 0 W/m 12,3 C 13,6 C 0,0 km/h (0 Bft)
03/08/2012 09:00 14,3 C 92 % 1019,0 hPa 0,0 mm 1,1 km/h (1 Bft) E 90 0 min 0 W/m 13,0 C 14,3 C 4,0 km/h (1 Bft)
03/08/2012 09:10 14,8 C 92 % 1019,0 hPa 0,0 mm 0,0 km/h (0 Bft) E 90 0 min 0 W/m 13,5 C 14,8 C 0,0 km/h (0 Bft)
03/08/2012 09:20 15,4 C 92 % 1019,0 hPa 0,0 mm 0,4 km/h (0 Bft) S-SE 157 0 min 0 W/m 14,1 C 15,4 C 3,2 km/h (1 Bft)
03/08/2012 09:30 15,9 C 91 % 1019,0 hPa 0,0 mm 2,2 km/h (1 Bft) S-SO 202 0 min 0 W/m 14,4 C 15,9 C 4,0 km/h (1 Bft)
03/08/2012 09:40 16,6 C 87 % 1019,0 hPa 0,0 mm 1,4 km/h (1 Bft) S 180 0 min 0 W/m 14,4 C 16,6 C 4,0 km/h (1 Bft)
03/08/2012 09:50 17,6 C 86 % 1019,2 hPa 0,0 mm 2,5 km/h (1 Bft) S-SO 202 0 min 0 W/m 15,2 C 17,6 C 4,3 km/h (1 Bft)
03/08/2012 10:00 18,3 C 82 % 1019,0 hPa 0,0 mm 0,7 km/h (0 Bft) S-SE 157 0 min 0 W/m 15,2 C 18,3 C 4,3 km/h (1 Bft)
03/08/2012 10:10 19,3 C 80 % 1019,1 hPa 0,0 mm 0,0 km/h (0 Bft) S-SO 202 0 min 0 W/m 15,8 C 19,3 C 0,0 km/h (0 Bft)
03/08/2012 10:20 20,1 C 75 % 1019,1 hPa 0,0 mm 0,0 km/h (0 Bft) O-SO 247 0 min 0 W/m 15,5 C 20,1 C 0,0 km/h (0 Bft)
03/08/2012 10:30 20,5 C 71 % 1019,1 hPa 0,0 mm 2,2 km/h (1 Bft) S-SO 202 0 min 0 W/m 15,1 C 20,5 C 2,2 km/h (1 Bft)
03/08/2012 10:40 20,4 C 69 % 1019,2 hPa 0,0 mm 1,4 km/h (1 Bft) SO 225 0 min 0 W/m 14,5 C 20,4 C 1,4 km/h (1 Bft)
03/08/2012 10:50 20,6 C 69 % 1019,1 hPa 0,0 mm 1,4 km/h (1 Bft) S-SO 202 0 min 0 W/m 14,7 C 20,6 C 4,0 km/h (1 Bft)
03/08/2012 11:00 21,4 C 69 % 1019,1 hPa 0,0 mm 1,4 km/h (1 Bft) N 360 0 min 0 W/m 15,5 C 21,4 C 1,4 km/h (1 Bft)
03/08/2012 11:10 22,1 C 66 % 1019,1 hPa 0,0 mm 0,0 km/h (0 Bft) O 270 0 min 0 W/m 15,4 C 22,1 C 3,2 km/h (1 Bft)
03/08/2012 11:20 21,8 C 61 % 1019,1 hPa 0,0 mm 4,7 km/h (1 Bft) S-SO 202 0 min 0 W/m 13,9 C 21,8 C 4,7 km/h (1 Bft)
03/08/2012 11:30 21,9 C 63 % 1019,1 hPa 0,0 mm 1,8 km/h (1 Bft) SO 225 0 min 0 W/m 14,5 C 21,9 C 4,3 km/h (1 Bft)
03/08/2012 11:40 22,3 C 63 % 1019,1 hPa 0,0 mm 5,4 km/h (2 Bft) S 180 0 min 0 W/m 14,9 C 22,3 C 6,5 km/h (2 Bft)
03/08/2012 11:50 22,1 C 62 % 1019,0 hPa 0,0 mm 0,7 km/h (0 Bft) S 180 0 min 0 W/m 14,5 C 22,1 C 1,4 km/h (1 Bft)
03/08/2012 12:00 21,9 C 63 % 1018,9 hPa 0,0 mm 1,4 km/h (1 Bft) SO 225 0 min 0 W/m 14,5 C 21,9 C 3,6 km/h (1 Bft)
03/08/2012 12:10 22,3 C 62 % 1019,0 hPa 0,0 mm 1,4 km/h (1 Bft) SO 225 0 min 0 W/m 14,7 C 22,3 C 3,6 km/h (1 Bft)
03/08/2012 12:20 22,7 C 60 % 1018,9 hPa 0,0 mm 1,4 km/h (1 Bft) S-SO 202 0 min 0 W/m 14,5 C 22,7 C 4,0 km/h (1 Bft)
03/08/2012 12:30 23,3 C 58 % 1018,9 hPa 0,0 mm 4,7 km/h (1 Bft) S-SO 202 0 min 0 W/m 14,6 C 23,3 C 8,6 km/h (2 Bft)
03/08/2012 12:40 23,8 C 57 % 1018,8 hPa 0,0 mm 1,4 km/h (1 Bft) SO 225 0 min 0 W/m 14,8 C 23,8 C 3,6 km/h (1 Bft)
03/08/2012 12:50 24,5 C 54 % 1018,8 hPa 0,0 mm 6,1 km/h (2 Bft) S-SO 202 0 min 0 W/m 14,6 C 24,5 C 9,7 km/h (2 Bft)
03/08/2012 13:00 24,6 C 53 % 1018,9 hPa 0,0 mm 0,4 km/h (0 Bft) O-SO 247 0 min 0 W/m 14,4 C 24,6 C 0,4 km/h (0 Bft)
03/08/2012 13:10 24,5 C 54 % 1018,7 hPa 0,0 mm 3,2 km/h (1 Bft) N-NO 337 0 min 0 W/m 14,6 C 24,5 C 8,6 km/h (2 Bft)
03/08/2012 13:20 24,4 C 53 % 1018,7 hPa 0,0 mm 6,1 km/h (2 Bft) NO 315 0 min 0 W/m 14,2 C 24,4 C 9,4 km/h (2 Bft)
03/08/2012 13:30 24,1 C 53 % 1018,7 hPa 0,0 mm 3,6 km/h (1 Bft) S 180 0 min 0 W/m 13,9 C 24,1 C 4,3 km/h (1 Bft)
03/08/2012 13:40 23,7 C 55 % 1018,6 hPa 0,0 mm 7,9 km/h (2 Bft) S-SO 202 0 min 0 W/m 14,1 C 23,7 C 11,5 km/h (2 Bft)
03/08/2012 13:50 24,0 C 55 % 1018,5 hPa 0,0 mm 2,5 km/h (1 Bft) O-SO 247 0 min 0 W/m 14,4 C 24,0 C 4,0 km/h (1 Bft)
03/08/2012 14:00 24,5 C 52 % 1018,6 hPa 0,0 mm 0,4 km/h (0 Bft) SO 225 0 min 0 W/m 14,0 C 24,5 C 3,6 km/h (1 Bft)
03/08/2012 14:10 24,9 C 49 % 1018,5 hPa 0,0 mm 4,3 km/h (1 Bft) SO 225 0 min 0 W/m 13,4 C 24,9 C 4,3 km/h (1 Bft)
03/08/2012 14:20 24,8 C 50 % 1018,4 hPa 0,0 mm 9,4 km/h (2 Bft) S-SO 202 0 min 0 W/m 13,7 C 24,8 C 14,8 km/h (3 Bft)
03/08/2012 14:30 24,8 C 48 % 1018,3 hPa 0,0 mm 7,6 km/h (2 Bft) SO 225 0 min 0 W/m 13,0 C 24,8 C 9,4 km/h (2 Bft)
03/08/2012 14:40 25,1 C 50 % 1018,2 hPa 0,0 mm 8,6 km/h (2 Bft) S 180 0 min 0 W/m 13,9 C 25,1 C 15,8 km/h (3 Bft)
03/08/2012 14:50 25,3 C 50 % 1018,2 hPa 0,0 mm 4,7 km/h (1 Bft) S-SO 202 0 min 0 W/m 14,1 C 25,3 C 6,8 km/h (2 Bft)
03/08/2012 15:00 25,1 C 49 % 1018,0 hPa 0,0 mm 6,8 km/h (2 Bft) SO 225 0 min 0 W/m 13,6 C 25,1 C 11,5 km/h (2 Bft)
03/08/2012 15:10 25,3 C 49 % 1018,0 hPa 0,0 mm 6,5 km/h (2 Bft) S-SO 202 0 min 0 W/m 13,8 C 25,3 C 9,7 km/h (2 Bft)
03/08/2012 15:20 25,4 C 49 % 1017,9 hPa 0,0 mm 5,0 km/h (1 Bft) SO 225 0 min 0 W/m 13,9 C 25,4 C 8,6 km/h (2 Bft)
03/08/2012 15:30 25,6 C 48 % 1018,0 hPa 0,0 mm 2,9 km/h (1 Bft) S 180 0 min 0 W/m 13,8 C 25,6 C 4,3 km/h (1 Bft)
03/08/2012 15:40 25,8 C 47 % 1017,8 hPa 0,0 mm 2,2 km/h (1 Bft) S-SO 202 0 min 0 W/m 13,6 C 25,8 C 6,5 km/h (2 Bft)
03/08/2012 15:50 25,9 C 46 % 1017,7 hPa 0,0 mm 1,1 km/h (1 Bft) SO 225 0 min 0 W/m 13,4 C 25,9 C 4,3 km/h (1 Bft)
03/08/2012 16:00 25,8 C 46 % 1017,6 hPa 0,0 mm 5,0 km/h (1 Bft) S-SO 202 0 min 0 W/m 13,3 C 25,8 C 5,0 km/h (1 Bft)
03/08/2012 16:10 25,6 C 47 % 1017,4 hPa 0,0 mm 1,4 km/h (1 Bft) O-SO 247 0 min 0 W/m 13,4 C 25,6 C 4,0 km/h (1 Bft)
03/08/2012 16:20 25,5 C 47 % 1017,4 hPa 0,0 mm 7,6 km/h (2 Bft) SO 225 0 min 0 W/m 13,3 C 25,5 C 13,3 km/h (3 Bft)
03/08/2012 16:30 25,6 C 48 % 1017,3 hPa 0,0 mm 11,5 km/h (2 Bft) SO 225 0 min 0 W/m 13,8 C 25,6 C 15,5 km/h (3 Bft)
03/08/2012 16:40 25,8 C 48 % 1017,3 hPa 0,0 mm 4,3 km/h (1 Bft) S-SO 202 0 min 0 W/m 13,9 C 25,8 C 7,9 km/h (2 Bft)
03/08/2012 16:50 25,9 C 48 % 1017,2 hPa 0,0 mm 2,9 km/h (1 Bft) S-SO 202 0 min 0 W/m 14,0 C 25,9 C 4,3 km/h (1 Bft)
03/08/2012 17:00 26,1 C 47 % 1017,1 hPa 0,0 mm 6,5 km/h (2 Bft) S-SO 202 0 min 0 W/m 13,9 C 26,1 C 10,4 km/h (2 Bft)
03/08/2012 17:10 26,4 C 47 % 1017,1 hPa 0,0 mm 5,8 km/h (2 Bft) O-SO 247 0 min 0 W/m 14,2 C 26,4 C 11,9 km/h (2 Bft)
03/08/2012 17:20 26,3 C 47 % 1017,0 hPa 0,0 mm 6,8 km/h (2 Bft) SO 225 0 min 0 W/m 14,1 C 26,3 C 10,1 km/h (2 Bft)
03/08/2012 17:30 25,5 C 48 % 1017,0 hPa 0,0 mm 2,9 km/h (1 Bft) SO 225 0 min 0 W/m 13,7 C 25,5 C 6,5 km/h (2 Bft)
03/08/2012 17:40 25,1 C 49 % 1016,9 hPa 0,0 mm 6,5 km/h (2 Bft) O-SO 247 0 min 0 W/m 13,6 C 25,1 C 8,6 km/h (2 Bft)
03/08/2012 17:50 25,3 C 50 % 1016,7 hPa 0,0 mm 0,4 km/h (0 Bft) S-SE 157 0 min 0 W/m 14,1 C 25,3 C 1,8 km/h (1 Bft)
03/08/2012 18:00 25,9 C 49 % 1016,7 hPa 0,0 mm 5,8 km/h (2 Bft) SO 225 0 min 0 W/m 14,4 C 25,9 C 10,4 km/h (2 Bft)
03/08/2012 18:10 26,3 C 47 % 1016,7 hPa 0,0 mm 0,0 km/h (0 Bft) O 270 0 min 0 W/m 14,1 C 26,3 C 0,0 km/h (0 Bft)
03/08/2012 18:20 25,9 C 47 % 1016,7 hPa 0,0 mm 1,1 km/h (1 Bft) S 180 0 min 0 W/m 13,7 C 25,9 C 3,2 km/h (1 Bft)
03/08/2012 18:30 25,8 C 48 % 1016,7 hPa 0,0 mm 2,5 km/h (1 Bft) O 270 0 min 0 W/m 13,9 C 25,8 C 6,8 km/h (2 Bft)
03/08/2012 18:40 26,1 C 48 % 1016,6 hPa 0,0 mm 5,0 km/h (1 Bft) O-SO 247 0 min 0 W/m 14,2 C 26,1 C 10,4 km/h (2 Bft)
03/08/2012 18:50 26,3 C 48 % 1016,6 hPa 0,0 mm 2,9 km/h (1 Bft) O-NO 292 0 min 0 W/m 14,4 C 26,3 C 6,5 km/h (2 Bft)
03/08/2012 19:00 26,3 C 47 % 1016,6 hPa 0,0 mm 2,2 km/h (1 Bft) SO 225 0 min 0 W/m 14,1 C 26,3 C 4,3 km/h (1 Bft)
03/08/2012 19:10 26,0 C 47 % 1016,6 hPa 0,0 mm 3,2 km/h (1 Bft) S-SO 202 0 min 0 W/m 13,8 C 26,0 C 4,3 km/h (1 Bft)
03/08/2012 19:20 25,6 C 49 % 1016,6 hPa 0,0 mm 0,0 km/h (0 Bft) O-SO 247 0 min 0 W/m 14,1 C 25,6 C 0,0 km/h (0 Bft)
03/08/2012 19:30 25,7 C 48 % 1016,6 hPa 0,0 mm 5,4 km/h (2 Bft) SE 135 0 min 0 W/m 13,9 C 25,7 C 7,9 km/h (2 Bft)
03/08/2012 19:40 25,6 C 49 % 1016,6 hPa 0,0 mm 1,8 km/h (1 Bft) O 270 0 min 0 W/m 14,1 C 25,6 C 7,2 km/h (2 Bft)
03/08/2012 19:50 25,3 C 49 % 1016,6 hPa 0,0 mm 0,0 km/h (0 Bft) O-NO 292 0 min 0 W/m 13,8 C 25,3 C 0,0 km/h (0 Bft)
03/08/2012 20:00 25,0 C 49 % 1016,6 hPa 0,0 mm 2,5 km/h (1 Bft) O-SO 247 0 min 0 W/m 13,5 C 25,0 C 7,9 km/h (2 Bft)
03/08/2012 20:10 24,7 C 50 % 1016,6 hPa 0,0 mm 0,7 km/h (0 Bft) O-NO 292 0 min 0 W/m 13,6 C 24,7 C 4,3 km/h (1 Bft)
03/08/2012 20:20 24,1 C 51 % 1016,7 hPa 0,0 mm 0,0 km/h (0 Bft) N-NO 337 0 min 0 W/m 13,3 C 24,1 C 0,0 km/h (0 Bft)
03/08/2012 20:30 23,4 C 52 % 1016,8 hPa 0,0 mm 0,0 km/h (0 Bft) N-NO 337 0 min 0 W/m 13,0 C 23,4 C 0,0 km/h (0 Bft)
03/08/2012 20:40 22,8 C 53 % 1016,8 hPa 0,0 mm 5,4 km/h (2 Bft) N-NE 22 0 min 0 W/m 12,7 C 22,8 C 16,2 km/h (3 Bft)
03/08/2012 20:50 22,2 C 55 % 1016,9 hPa 0,0 mm 1,1 km/h (1 Bft) NO 315 0 min 0 W/m 12,7 C 22,2 C 4,3 km/h (1 Bft)
03/08/2012 21:00 21,7 C 56 % 1016,9 hPa 0,0 mm 0,7 km/h (0 Bft) N-NO 337 0 min 0 W/m 12,5 C 21,7 C 0,7 km/h (0 Bft)
03/08/2012 21:10 21,2 C 57 % 1017,0 hPa 0,0 mm 0,4 km/h (0 Bft) O 270 0 min 0 W/m 12,3 C 21,2 C 0,4 km/h (0 Bft)
03/08/2012 21:20 20,8 C 59 % 1017,0 hPa 0,0 mm 0,0 km/h (0 Bft) O-NO 292 0 min 0 W/m 12,5 C 20,8 C 0,0 km/h (0 Bft)
03/08/2012 21:30 20,3 C 61 % 1017,0 hPa 0,0 mm 0,0 km/h (0 Bft) O-NO 292 0 min 0 W/m 12,5 C 20,3 C 0,0 km/h (0 Bft)
03/08/2012 21:40 19,8 C 62 % 1017,1 hPa 0,0 mm 0,0 km/h (0 Bft) O-NO 292 0 min 0 W/m 12,3 C 19,8 C 0,0 km/h (0 Bft)
03/08/2012 21:50 19,4 C 63 % 1017,2 hPa 0,0 mm 0,0 km/h (0 Bft) O-NO 292 0 min 0 W/m 12,2 C 19,4 C 0,0 km/h (0 Bft)
03/08/2012 22:00 19,1 C 65 % 1017,3 hPa 0,0 mm 0,0 km/h (0 Bft) O-SO 247 0 min 0 W/m 12,4 C 19,1 C 0,0 km/h (0 Bft)
03/08/2012 22:10 18,8 C 65 % 1017,3 hPa 0,0 mm 0,0 km/h (0 Bft) O-SO 247 0 min 0 W/m 12,1 C 18,8 C 0,0 km/h (0 Bft)
03/08/2012 22:20 18,5 C 66 % 1017,3 hPa 0,0 mm 0,0 km/h (0 Bft) SO 225 0 min 0 W/m 12,0 C 18,5 C 0,0 km/h (0 Bft)
03/08/2012 22:30 18,2 C 67 % 1017,4 hPa 0,0 mm 0,0 km/h (0 Bft) SO 225 0 min 0 W/m 12,0 C 18,2 C 0,0 km/h (0 Bft)
03/08/2012 22:40 17,9 C 68 % 1017,4 hPa 0,0 mm 0,0 km/h (0 Bft) SO 225 0 min 0 W/m 11,9 C 17,9 C 0,0 km/h (0 Bft)
03/08/2012 22:50 17,7 C 70 % 1017,5 hPa 0,0 mm 0,0 km/h (0 Bft) SO 225 0 min 0 W/m 12,2 C 17,7 C 0,0 km/h (0 Bft)
03/08/2012 23:00 17,5 C 70 % 1017,3 hPa 0,0 mm 0,0 km/h (0 Bft) O-SO 247 0 min 0 W/m 12,0 C 17,5 C 0,0 km/h (0 Bft)
03/08/2012 23:10 17,5 C 71 % 1017,4 hPa 0,0 mm 0,0 km/h (0 Bft) O-SO 247 0 min 0 W/m 12,2 C 17,5 C 0,0 km/h (0 Bft)
03/08/2012 23:20 17,4 C 71 % 1017,4 hPa 0,0 mm 0,0 km/h (0 Bft) SO 225 0 min 0 W/m 12,1 C 17,4 C 0,0 km/h (0 Bft)
03/08/2012 23:30 17,3 C 71 % 1017,5 hPa 0,0 mm 0,0 km/h (0 Bft) SO 225 0 min 0 W/m 12,0 C 17,3 C 0,0 km/h (0 Bft)
03/08/2012 23:40 17,2 C 72 % 1017,4 hPa 0,0 mm 0,0 km/h (0 Bft) S-SO 202 0 min 0 W/m 12,1 C 17,2 C 0,0 km/h (0 Bft)
03/08/2012 23:50 17,2 C 72 % 1017,5 hPa 0,0 mm 0,0 km/h (0 Bft) S-SO 202 0 min 0 W/m 12,1 C 17,2 C 0,0 km/h (0 Bft)
_ Min-Heure 07:00 16:00 20:10 - 23:50 - - - - 06:40 07:00 23:50
Minimum _ 10,8 C 46 % 1016,6 hPa - 0,0 km/h (0 Bft) - - - - 9,1 C 10,8 C 0,0 km/h (0 Bft)
_ Max-Heure 17:10 09:20 10:40 23:50 16:30 - - 23:50 23:50 10:10 17:10 20:40
Maximum _ 26,4 C 92 % 1019,2 hPa 0,0 mm 11,5 km/h
SO (2 Bft)
- - 0 min 0 W/m 15,8 C 26,4 C 16,2 km/h
N-NE (3 Bft)
Moyenne _ 18,8 C 69 % 1018,2 hPa #0,0 mm 1,6 km/h (1 Bft) S-SO - #0 min. 0 W/m 12,4 C 18,8 C 3,1 km/h (1 Bft)
Saint Bonnet de Bellac- Haute Vienne - France